Weather History for PHKO - August, 2013

Change the Weather History Date:

Sunday, August 4, 2013

  Actual Average Record
Temperature  
Mean Temperature 78 °F -  
Max Temperature 84 °F 83 °F 93 °F (1986)
Min Temperature 73 °F 73 °F 70 °F (1989)
Cooling Degree Days 14    
Growing Degree Days 28 (Base 50)    
Moisture  
Dew Point 66 °F    
Average Humidity 62    
Maximum Humidity 71    
Minimum Humidity 55    
Precipitation  
Precipitation 0.00 in - - ()
Sea Level Pressure  
Sea Level Pressure 29.96 in    
Wind  
Wind Speed 7 mph (SSE)    
Max Wind Speed 10 mph    
Max Gust Speed -    
Visibility 10 miles    
Events      
Averages and records for this station are not official NWS values.
T = Trace of Precipitation, MM = Missing Value Source: NWS Daily Summary

Daily Weather History Graph

Daily Weather History Graph

Search for Another Location

Airport or City:

Trip Planner

Search our weather history database for the weather conditions in past years. The results will help you decide how hot, cold, wet, or windy it might be!

Date:

Astronomy

Aug. 04, 2013 Rise Set
Actual Time 6:01 AM HST 6:58 PM HST
Civil Twilight 5:37 AM HST 7:22 PM HST
Nautical Twilight 5:10 AM HST 7:49 PM HST
Astronomical Twilight 4:42 AM HST 8:17 PM HST
Moon 4:14 AM HST (8/4) 5:29 PM HST (8/4)
Length of Visible Light 13h 44m
Length of Day
12h 57m
Waning Crescent, 4% of the Moon is Illuminated
Aug 4
Waning Crescent
Aug 6
New
Aug 14
First Quarter
Aug 20
Full
Aug 27
Last Quarter

Hourly Weather History & Observations

Time (HST) Temp. Heat Index Dew Point Humidity Pressure Visibility Wind Dir Wind Speed Gust Speed Precip Events Conditions
12:53 AM 78.1 °F - 66.9 °F 68% 29.98 in 10.0 mi ESE 5.8 mph - N/A   Mostly Cloudy
1:53 AM 77.0 °F - 66.9 °F 71% 29.97 in 10.0 mi ESE 6.9 mph - N/A   Scattered Clouds
2:53 AM 77.0 °F - 66.0 °F 69% 29.95 in 10.0 mi East 4.6 mph - N/A   Mostly Cloudy
3:53 AM 75.9 °F - 64.9 °F 69% 29.94 in 10.0 mi East 4.6 mph - N/A   Partly Cloudy
4:53 AM 73.9 °F - 63.0 °F 68% 29.94 in 10.0 mi ENE 5.8 mph - N/A   Scattered Clouds
5:53 AM 75.0 °F - 64.0 °F 69% 29.95 in 10.0 mi East 3.5 mph - N/A   Clear
6:53 AM 77.0 °F - 64.0 °F 64% 29.97 in 10.0 mi East 3.5 mph - N/A   Clear
7:53 AM 80.1 °F 82.3 °F 66.9 °F 64% 29.99 in 10.0 mi South 4.6 mph - N/A   Clear
8:53 AM 82.0 °F 84.9 °F 68.0 °F 62% 29.99 in 10.0 mi SSW 8.1 mph - N/A   Clear
9:53 AM 82.9 °F 85.8 °F 68.0 °F 60% 29.99 in 10.0 mi SSW 8.1 mph - N/A   Clear
10:53 AM 84.0 °F 87.0 °F 68.0 °F 58% 29.98 in 10.0 mi SSW 9.2 mph - N/A   Clear
11:53 AM 84.9 °F 88.2 °F 68.0 °F 57% 29.97 in 10.0 mi SSW 10.4 mph - N/A   Clear
12:53 PM 84.9 °F 88.2 °F 68.0 °F 57% 29.96 in 10.0 mi WSW 10.4 mph - N/A   Clear
1:53 PM 84.9 °F 88.2 °F 68.0 °F 57% 29.94 in 10.0 mi WSW 10.4 mph - N/A   Clear
2:53 PM 84.9 °F 87.6 °F 66.9 °F 55% 29.93 in 10.0 mi WSW 10.4 mph - N/A   Clear
3:53 PM 84.0 °F 86.5 °F 66.9 °F 56% 29.93 in 10.0 mi SW 10.4 mph - N/A   Mostly Cloudy
4:53 PM 82.9 °F 85.8 °F 68.0 °F 60% 29.93 in 10.0 mi SSW 8.1 mph - N/A   Mostly Cloudy
5:53 PM 82.0 °F 85.5 °F 69.1 °F 65% 29.94 in 10.0 mi SSW 8.1 mph - N/A   Scattered Clouds
6:53 PM 82.0 °F 84.1 °F 66.0 °F 58% 29.95 in 10.0 mi South 10.4 mph - N/A   Mostly Cloudy
7:53 PM 82.0 °F 84.1 °F 66.0 °F 58% 29.97 in 10.0 mi SSE 9.2 mph - N/A   Mostly Cloudy
8:53 PM 80.1 °F 82.1 °F 66.0 °F 62% 29.99 in 10.0 mi East 5.8 mph - N/A   Partly Cloudy
9:53 PM 80.1 °F 82.1 °F 66.0 °F 62% 30.00 in 10.0 mi SE 3.5 mph - N/A   Clear
10:53 PM 79.0 °F - 64.9 °F 62% 30.00 in 10.0 mi ESE 3.5 mph - N/A   Scattered Clouds
11:53 PM 79.0 °F - 64.9 °F 62% 29.99 in 10.0 mi ESE 3.5 mph - N/A   Mostly Cloudy